TimeEET,TemperatureF,Dew PointF,Humidity,Sea Level PressureIn,VisibilityMPH,Wind Direction,Wind SpeedMPH,Gust SpeedMPH,PrecipitationIn,Events,Conditions,WindDirDegrees,DateUTC
12:50 AM,35.6,30.2,81,30.09,-9999.0,Calm,Calm,-,N/A,,Clear,0,2013-11-13 22:50:00
1:50 AM,33.8,30.2,87,30.09,-9999.0,NNW,1.2,-,N/A,,Clear,340,2013-11-13 23:50:00
2:00 AM,34,29,77,,6,NNW,1.2,,,,,340,2013-11-14 00:00:00
2:50 AM,32.0,30.2,93,30.09,-9999.0,Calm,Calm,-,N/A,,Clear,0,2013-11-14 00:50:00
3:50 AM,30.2,28.4,93,30.09,-9999.0,Calm,Calm,-,N/A,,Clear,0,2013-11-14 01:50:00
4:50 AM,28.4,26.6,93,30.09,-9999.0,Calm,Calm,-,N/A,,Clear,0,2013-11-14 02:50:00
5:00 AM,29,27,87,,6,Calm,Calm,,,,,,2013-11-14 03:00:00
5:50 AM,28.4,26.6,93,30.12,-9999.0,Calm,Calm,-,N/A,,Clear,0,2013-11-14 03:50:00
6:50 AM,30.2,28.4,93,30.12,-9999.0,Calm,Calm,-,N/A,,Clear,0,2013-11-14 04:50:00
7:50 AM,41.0,32.0,70,30.12,-9999.0,Calm,Calm,-,N/A,,Clear,0,2013-11-14 05:50:00
8:00 AM,40,32,65,,6,Calm,Calm,,,,,,2013-11-14 06:00:00
8:50 AM,46.4,32.0,57,30.12,-9999.0,Variable,1.2,-,N/A,,Clear,0,2013-11-14 06:50:00
9:50 AM,51.8,33.8,50,30.12,-9999.0,Calm,Calm,-,N/A,,Clear,0,2013-11-14 07:50:00
10:50 AM,57.2,33.8,41,30.09,-9999.0,Calm,Calm,-,N/A,,Clear,0,2013-11-14 08:50:00
11:00 AM,57,34,29,,12,Calm,Calm,,,,,,2013-11-14 09:00:00
11:50 AM,57.2,33.8,41,30.06,-9999.0,Variable,2.3,-,N/A,,Clear,0,2013-11-14 09:50:00
12:50 PM,60.8,33.8,36,30.04,6.2,Calm,Calm,-,N/A,,Partly Cloudy,0,2013-11-14 10:50:00
1:50 PM,60.8,32.0,34,30.04,6.2,Variable,1.2,-,N/A,,Scattered Clouds,0,2013-11-14 11:50:00
2:00 PM,60,31,22,,12,SW,1.2,,,,Scattered Clouds,220,2013-11-14 12:00:00
2:50 PM,59.0,30.2,34,30.04,6.2,Calm,Calm,-,N/A,,Scattered Clouds,0,2013-11-14 12:50:00
3:50 PM,55.4,32.0,41,30.01,6.2,SSE,1.2,-,N/A,,Mostly Cloudy,150,2013-11-14 13:50:00
4:50 PM,51.8,32.0,47,30.04,6.2,Calm,Calm,-,N/A,,Mostly Cloudy,0,2013-11-14 14:50:00
5:00 PM,52,32,34,,12,Calm,Calm,,,,Partly Cloudy,,2013-11-14 15:00:00
5:50 PM,48.2,32.0,54,30.04,6.2,Calm,Calm,-,N/A,,Mostly Cloudy,0,2013-11-14 15:50:00
6:50 PM,42.8,32.0,66,30.06,6.2,Calm,Calm,-,N/A,,Mostly Cloudy,0,2013-11-14 16:50:00
7:50 PM,37.4,30.2,75,30.06,6.2,Calm,Calm,-,N/A,,Mostly Cloudy,0,2013-11-14 17:50:00
8:00 PM,38,29,61,,6,Calm,Calm,,,,Partly Cloudy,,2013-11-14 18:00:00
8:50 PM,41.0,30.2,65,30.06,6.2,Calm,Calm,-,N/A,,Mostly Cloudy,0,2013-11-14 18:50:00
9:50 PM,37.4,30.2,75,30.06,6.2,Calm,Calm,-,N/A,,Mostly Cloudy,0,2013-11-14 19:50:00
10:50 PM,35.6,30.2,81,30.06,6.2,Calm,Calm,-,N/A,,Mostly Cloudy,0,2013-11-14 20:50:00
11:00 PM,36,30,71,,6,Calm,Calm,,,,Partly Cloudy,,2013-11-14 21:00:00
11:50 PM,35.6,30.2,81,30.06,6.2,Calm,Calm,-,N/A,,Scattered Clouds,0,2013-11-14 21:50:00